Change the Weather History Date:

Saturday, April 12, 2014

  Actual Average (KJYM) Record (KJYM)
Temperature  
Mean Temperature 56 °F -  
Max Temperature 71 °F 55 °F 81 °F (1971)
Min Temperature 42 °F 32 °F 19 °F (1976)
Degree Days  
Heating Degree Days 8    
Growing Degree Days 6 (Base 50)    
Moisture  
Dew Point 38 °F    
Average Humidity 47    
Maximum Humidity 78    
Minimum Humidity 24    
Precipitation  
Precipitation 0.00 in - - ()
Sea Level Pressure  
Sea Level Pressure 29.96 in    
Wind  
Wind Speed 6 mph (SSW)    
Max Wind Speed 17 mph    
Max Gust Speed 24 mph    
Visibility 10 miles    
Events      
Averages and records for this station are not official NWS values.
T = Trace of Precipitation, MM = Missing Value Source: NWS Daily Summary

Daily Weather History Graph

Daily Weather History Graph

Search for Another Location

Airport or City:

Trip Planner

Search our weather history database for the weather conditions in past years. The results will help you decide how hot, cold, wet, or windy it might be!

Date:

Astronomy

Apr. 12, 2014 Rise Set
Actual Time 7:04 AM EDT 8:17 PM EDT
Civil Twilight 6:35 AM EDT 8:46 PM EDT
Nautical Twilight 6:01 AM EDT 9:21 PM EDT
Astronomical Twilight 5:25 AM EDT 9:57 PM EDT
Moon 5:53 PM EDT (4/12) 5:33 AM EDT (4/12)
Length of Visible Light 14h 10m
Length of Day
13h 13m
Waxing Gibbous, 93% of the Moon is Illuminated
Apr 12
Waxing Gibbous
Apr 15
Full
Apr 22
Last Quarter
Apr 29
New
May 6
First Quarter

Hourly Weather History & Observations

Time (EDT) Temp. Windchill Dew Point Humidity Pressure Visibility Wind Dir Wind Speed Gust Speed Precip Events Conditions
12:14 AM 44.1 °F - 35.2 °F 71% 30.02 in 10.0 mi Calm Calm - N/A   Mostly Cloudy
12:35 AM 45.1 °F - 34.3 °F 66% 30.03 in 10.0 mi Calm Calm - N/A   Mostly Cloudy
12:54 AM 43.0 °F - 34.9 °F 73% 30.03 in 10.0 mi Calm Calm - N/A   Overcast
1:15 AM 42.8 °F - 36.3 °F 78% 30.03 in 10.0 mi Calm Calm - N/A   Scattered Clouds
1:35 AM 42.1 °F - 35.6 °F 78% 30.03 in 10.0 mi Calm Calm - N/A   Clear
1:54 AM 46.2 °F 45.0 °F 32.4 °F 58% 30.04 in 10.0 mi South 3.5 mph - N/A   Clear
2:15 AM 44.4 °F - 33.8 °F 66% 30.04 in 10.0 mi Calm Calm - N/A   Clear
2:35 AM 44.6 °F - 32.9 °F 64% 30.04 in 10.0 mi Calm Calm - N/A   Clear
2:55 AM 45.7 °F 43.4 °F 32.4 °F 60% 30.04 in 10.0 mi SSW 4.6 mph - N/A   Clear
3:15 AM 48.7 °F - 31.1 °F 51% 30.04 in 10.0 mi SW 5.8 mph - N/A   Clear
3:35 AM 48.6 °F - 31.8 °F 52% 30.04 in 10.0 mi SW 6.9 mph - N/A   Clear
3:55 AM 48.7 °F - 32.0 °F 52% 30.05 in 10.0 mi SW 8.1 mph - N/A   Clear
4:15 AM 49.8 °F - 32.0 °F 50% 30.06 in 10.0 mi SW 9.2 mph - N/A   Clear
4:34 AM 49.6 °F - 32.4 °F 51% 30.06 in 10.0 mi SW 8.1 mph - N/A   Clear
4:55 AM 49.6 °F - 32.7 °F 52% 30.07 in 10.0 mi SW 6.9 mph - N/A   Clear
5:15 AM 49.6 °F - 32.5 °F 52% 30.07 in 10.0 mi SW 8.1 mph - N/A   Clear
5:34 AM 49.5 °F - 32.9 °F 53% 30.07 in 10.0 mi SW 6.9 mph - N/A   Clear
5:55 AM 49.8 °F - 32.7 °F 52% 30.06 in 10.0 mi SW 8.1 mph - N/A   Clear
6:15 AM 49.5 °F - 32.4 °F 52% 30.07 in 10.0 mi SW 6.9 mph - N/A   Clear
6:34 AM 48.7 °F - 32.4 °F 53% 30.07 in 10.0 mi SW 6.9 mph - N/A   Clear
6:55 AM 48.6 °F - 32.4 °F 54% 30.06 in 10.0 mi SSW 6.9 mph - N/A   Clear
7:14 AM 49.5 °F - 32.4 °F 52% 30.06 in 10.0 mi SSW 6.9 mph - N/A   Clear
7:35 AM 50.7 °F - 32.5 °F 50% 30.06 in 10.0 mi SW 5.8 mph - N/A   Clear
7:55 AM 51.1 °F - 32.0 °F 48% 30.06 in 10.0 mi SSW 4.6 mph - N/A   Clear
8:14 AM 51.3 °F - 32.7 °F 49% 30.06 in 10.0 mi SSW 3.5 mph - N/A   Clear
8:35 AM 54.5 °F - 33.6 °F 45% 30.05 in 10.0 mi Calm Calm - N/A   Clear
8:55 AM 58.1 °F - 30.9 °F 36% 30.06 in 10.0 mi SSW 6.9 mph - N/A   Clear
9:14 AM 59.0 °F - 29.8 °F 33% 30.06 in 10.0 mi South 6.9 mph 20.7 mph N/A   Clear
9:35 AM 60.4 °F - 30.4 °F 32% 30.06 in 10.0 mi SSW 9.2 mph 16.1 mph N/A   Clear
9:55 AM 61.0 °F - 29.7 °F 31% 30.05 in 10.0 mi SSW 8.1 mph 16.1 mph N/A   Clear
10:14 AM 61.5 °F - 30.0 °F 30% 30.04 in 10.0 mi South 5.8 mph - N/A   Clear
10:35 AM 63.1 °F - 30.6 °F 29% 30.04 in 10.0 mi SSW 13.8 mph 17.3 mph N/A   Clear
10:55 AM 63.7 °F - 28.4 °F 26% 30.05 in 10.0 mi South 13.8 mph 18.4 mph N/A   Mostly Cloudy
11:14 AM 64.2 °F - 28.6 °F 26% 30.03 in 10.0 mi SSW 9.2 mph 19.6 mph N/A   Mostly Cloudy
11:35 AM 65.7 °F - 29.7 °F 26% 30.02 in 10.0 mi South 12.7 mph 19.6 mph N/A   Scattered Clouds
11:55 AM 66.0 °F - 30.4 °F 26% 30.01 in 10.0 mi South 11.5 mph 20.7 mph N/A   Clear
12:15 PM 67.5 °F - 30.4 °F 25% 30.01 in 10.0 mi South 10.4 mph 20.7 mph N/A   Clear
12:35 PM 67.3 °F - 29.3 °F 24% 30.00 in 10.0 mi SSW 17.3 mph 21.9 mph N/A   Clear
12:54 PM 67.1 °F - 31.6 °F 27% 29.99 in 10.0 mi SSW 13.8 mph 21.9 mph N/A   Scattered Clouds
1:15 PM 67.3 °F - 35.1 °F 30% 29.97 in 10.0 mi South 13.8 mph 21.9 mph N/A   Clear
1:35 PM 67.1 °F - 38.7 °F 35% 29.96 in 10.0 mi South 11.5 mph 23.0 mph N/A   Scattered Clouds
1:54 PM 67.1 °F - 40.1 °F 37% 29.96 in 10.0 mi SSW 11.5 mph 18.4 mph N/A   Mostly Cloudy
2:15 PM 67.1 °F - 40.6 °F 38% 29.95 in 10.0 mi South 9.2 mph 19.6 mph N/A   Scattered Clouds
2:35 PM 67.1 °F - 40.5 °F 38% 29.95 in 10.0 mi SSW 9.2 mph 19.6 mph N/A   Mostly Cloudy
2:54 PM 66.2 °F - 41.2 °F 40% 29.96 in 10.0 mi South 9.2 mph - N/A   Overcast
3:15 PM 66.9 °F - 42.4 °F 41% 29.94 in 10.0 mi South 10.4 mph - N/A   Overcast
3:35 PM 68.0 °F - 44.2 °F 42% 29.92 in 10.0 mi South 9.2 mph - N/A   Mostly Cloudy
3:54 PM 67.5 °F - 45.0 °F 44% 29.91 in 10.0 mi South 10.4 mph 17.3 mph N/A   Mostly Cloudy
4:15 PM 69.8 °F - 45.9 °F 42% 29.88 in 10.0 mi SSE 13.8 mph 18.4 mph N/A   Scattered Clouds
4:35 PM 68.9 °F - 46.6 °F 45% 29.86 in 10.0 mi SSE 11.5 mph 19.6 mph N/A   Mostly Cloudy
4:54 PM 69.1 °F - 48.0 °F 47% 29.84 in 10.0 mi SSE 11.5 mph 16.1 mph N/A   Overcast
5:15 PM 69.6 °F - 49.1 °F 48% 29.84 in 10.0 mi South 6.9 mph - N/A   Overcast
5:35 PM 69.8 °F - 49.1 °F 48% 29.83 in 10.0 mi South 9.2 mph 17.3 mph N/A   Overcast
5:54 PM 69.6 °F - 49.5 °F 49% 29.82 in 10.0 mi South 10.4 mph - N/A   Overcast
6:15 PM 71.1 °F - 48.6 °F 45% 29.81 in 10.0 mi South 8.1 mph 16.1 mph N/A   Overcast
6:35 PM 71.4 °F - 48.2 °F 44% 29.79 in 10.0 mi South 13.8 mph 24.2 mph N/A   Mostly Cloudy
6:55 PM 71.8 °F - 48.6 °F 44% 29.78 in 10.0 mi South 10.4 mph 19.6 mph N/A   Scattered Clouds
7:15 PM 71.4 °F - 48.9 °F 45% 29.78 in 10.0 mi South 8.1 mph 24.2 mph N/A   Scattered Clouds
7:34 PM 70.9 °F - 48.7 °F 45% 29.79 in 10.0 mi SSW 10.4 mph 17.3 mph N/A   Clear
7:55 PM 70.0 °F - 48.4 °F 46% 29.79 in 10.0 mi SSW 11.5 mph 17.3 mph N/A   Clear
8:15 PM 69.1 °F - 47.5 °F 46% 29.79 in 10.0 mi SSW 8.1 mph 16.1 mph N/A   Scattered Clouds
8:34 PM 66.6 °F - 47.8 °F 51% 29.80 in 10.0 mi SW 8.1 mph - N/A   Clear
8:55 PM 65.1 °F - 48.2 °F 54% 29.82 in 10.0 mi WSW 4.6 mph - N/A   Clear
9:14 PM 63.9 °F - 48.0 °F 56% 29.83 in 10.0 mi WSW 4.6 mph - N/A   Scattered Clouds
9:35 PM 63.3 °F - 47.3 °F 56% 29.83 in 10.0 mi SSW 3.5 mph - N/A   Scattered Clouds
9:55 PM 64.2 °F - 47.5 °F 55% 29.83 in 10.0 mi Calm Calm - N/A   Mostly Cloudy
10:14 PM 62.1 °F - 48.2 °F 60% 29.83 in 10.0 mi South 4.6 mph - N/A   Overcast
10:35 PM 64.0 °F - 47.8 °F 56% 29.83 in 10.0 mi South 4.6 mph - N/A   Overcast
10:54 PM 65.5 °F - 48.0 °F 53% 29.82 in 10.0 mi South 4.6 mph - N/A   Overcast
11:15 PM 65.3 °F - 48.2 °F 54% 29.82 in 10.0 mi SSW 8.1 mph - N/A   Overcast
11:35 PM 64.6 °F - 48.2 °F 55% 29.82 in 10.0 mi Calm Calm - N/A   Overcast
11:54 PM 62.1 °F - 48.2 °F 60% 29.81 in 10.0 mi Calm Calm - N/A   Overcast